Time,TemperatureF,DewpointF,PressureIn,WindDirection,WindDirectionDegrees,WindSpeedMPH,WindSpeedGustMPH,Humidity,HourlyPrecipIn,Conditions,Clouds,dailyrainin,SoftwareType,DateUTC
2013-06-09 00:03:00,70.0,67.0,30.08,South,171,0.0,-999.0,89,-99.99,,,-99.99,,2013-06-09 04:03:00,
2013-06-09 00:12:00,70.0,67.0,30.08,South,171,0.0,-999.0,89,-99.99,,,-99.99,,2013-06-09 04:12:00,
2013-06-09 00:23:00,70.0,67.0,30.08,South,171,0.0,-999.0,90,-99.99,,,-99.99,,2013-06-09 04:23:00,
2013-06-09 00:33:00,70.0,67.0,30.08,South,171,0.0,-999.0,91,-99.99,,,-99.99,,2013-06-09 04:33:00,
2013-06-09 00:43:00,70.0,67.0,30.08,South,171,0.0,-999.0,91,-99.99,,,-99.99,,2013-06-09 04:43:00,
2013-06-09 00:53:00,69.0,66.0,30.07,South,171,0.0,-999.0,91,-99.99,,,-99.99,,2013-06-09 04:53:00,
2013-06-09 01:02:00,69.0,66.0,30.08,South,171,0.0,-999.0,91,-99.99,,,-99.99,,2013-06-09 05:02:00,
2013-06-09 01:12:00,69.0,66.0,30.08,South,171,0.0,-999.0,91,-99.99,,,-99.99,,2013-06-09 05:12:00,
2013-06-09 01:22:00,69.0,66.0,30.08,South,171,0.0,-999.0,91,-99.99,,,-99.99,,2013-06-09 05:22:00,
2013-06-09 01:32:00,69.0,67.0,30.08,South,171,0.0,-999.0,92,-99.99,,,-99.99,,2013-06-09 05:32:00,
2013-06-09 01:42:00,69.0,67.0,30.08,South,171,0.0,-999.0,92,-99.99,,,-99.99,,2013-06-09 05:42:00,
2013-06-09 01:52:00,69.0,66.0,30.08,WNW,288,0.0,-999.0,91,-99.99,,,-99.99,,2013-06-09 05:52:00,
2013-06-09 02:02:00,69.0,66.0,30.07,WNW,288,0.0,-999.0,90,-99.99,,,-99.99,,2013-06-09 06:02:00,
2013-06-09 02:12:00,69.0,66.0,30.07,WNW,288,0.0,-999.0,90,-99.99,,,-99.99,,2013-06-09 06:12:00,
2013-06-09 02:22:00,69.0,66.0,30.07,WNW,288,0.0,-999.0,91,-99.99,,,-99.99,,2013-06-09 06:22:00,
2013-06-09 02:32:00,69.0,66.0,30.06,WNW,288,0.0,-999.0,91,-99.99,,,-99.99,,2013-06-09 06:32:00,
2013-06-09 02:42:00,69.0,66.0,30.06,WNW,288,0.0,-999.0,91,-99.99,,,-99.99,,2013-06-09 06:42:00,
2013-06-09 02:52:00,68.0,66.0,30.07,WNW,288,0.0,-999.0,92,-99.99,,,-99.99,,2013-06-09 06:52:00,
2013-06-09 03:02:00,68.0,66.0,30.06,WNW,288,0.0,-999.0,93,-99.99,,,-99.99,,2013-06-09 07:02:00,
2013-06-09 03:12:00,68.0,66.0,30.06,WNW,288,0.0,-999.0,93,-99.99,,,-99.99,,2013-06-09 07:12:00,
2013-06-09 03:22:00,68.0,66.0,30.07,WNW,288,0.0,-999.0,93,-99.99,,,-99.99,,2013-06-09 07:22:00,
2013-06-09 03:32:00,68.0,66.0,30.06,WNW,288,0.0,-999.0,93,-99.99,,,-99.99,,2013-06-09 07:32:00,
2013-06-09 03:42:00,68.0,66.0,30.06,WNW,288,0.0,-999.0,93,-99.99,,,-99.99,,2013-06-09 07:42:00,
2013-06-09 03:52:00,67.0,65.0,30.06,WNW,288,0.0,-999.0,94,-99.99,,,-99.99,,2013-06-09 07:52:00,
2013-06-09 04:02:00,67.0,65.0,30.07,WSW,246,0.0,-999.0,94,-99.99,,,-99.99,,2013-06-09 08:02:00,
2013-06-09 04:12:00,67.0,65.0,30.07,WSW,246,0.0,-999.0,94,-99.99,,,-99.99,,2013-06-09 08:12:00,
2013-06-09 04:22:00,67.0,65.0,30.07,WSW,246,0.0,-999.0,94,-99.99,,,-99.99,,2013-06-09 08:22:00,
2013-06-09 04:32:00,67.0,66.0,30.07,WSW,246,0.0,-999.0,95,-99.99,,,-99.99,,2013-06-09 08:32:00,
2013-06-09 04:42:00,67.0,66.0,30.07,WSW,246,0.0,-999.0,95,-99.99,,,-99.99,,2013-06-09 08:42:00,
2013-06-09 04:53:00,66.0,65.0,30.08,WSW,246,0.0,-999.0,95,-99.99,,,-99.99,,2013-06-09 08:53:00,
2013-06-09 05:02:00,66.0,65.0,30.08,WSW,246,0.0,-999.0,95,-99.99,,,-99.99,,2013-06-09 09:02:00,
2013-06-09 05:12:00,66.0,65.0,30.08,WSW,246,0.0,-999.0,95,-99.99,,,-99.99,,2013-06-09 09:12:00,
2013-06-09 05:22:00,66.0,65.0,30.08,WSW,246,0.0,-999.0,95,-99.99,,,-99.99,,2013-06-09 09:22:00,
2013-06-09 05:33:00,66.0,65.0,30.09,WSW,246,0.0,-999.0,96,-99.99,,,-99.99,,2013-06-09 09:33:00,
2013-06-09 05:43:00,66.0,65.0,30.09,WSW,246,0.0,-999.0,96,-99.99,,,-99.99,,2013-06-09 09:43:00,
2013-06-09 05:52:00,66.0,65.0,30.09,WSW,246,0.0,-999.0,96,-99.99,,,-99.99,,2013-06-09 09:52:00,
2013-06-09 06:03:00,66.0,65.0,30.09,WSW,246,0.0,-999.0,96,-99.99,,,-99.99,,2013-06-09 10:03:00,
2013-06-09 06:12:00,66.0,65.0,30.09,WSW,246,0.0,-999.0,96,-99.99,,,-99.99,,2013-06-09 10:12:00,
2013-06-09 06:23:00,66.0,65.0,30.09,WSW,246,0.0,-999.0,96,-99.99,,,-99.99,,2013-06-09 10:23:00,
2013-06-09 06:32:00,66.0,65.0,30.09,WSW,246,0.0,-999.0,96,-99.99,,,-99.99,,2013-06-09 10:32:00,
2013-06-09 06:43:00,66.0,65.0,30.09,WSW,246,0.0,-999.0,96,-99.99,,,-99.99,,2013-06-09 10:43:00,
2013-06-09 06:52:00,66.0,65.0,30.09,WSW,246,0.0,-999.0,96,-99.99,,,-99.99,,2013-06-09 10:52:00,
2013-06-09 07:02:00,65.0,64.0,30.10,WSW,246,0.0,-999.0,96,-99.99,,,-99.99,,2013-06-09 11:02:00,
2013-06-09 07:12:00,65.0,64.0,30.10,WSW,246,0.0,-999.0,96,-99.99,,,-99.99,,2013-06-09 11:12:00,
2013-06-09 07:22:00,66.0,65.0,30.11,WSW,246,0.0,-999.0,96,-99.99,,,-99.99,,2013-06-09 11:22:00,
2013-06-09 07:32:00,66.0,65.0,30.11,WSW,246,0.0,-999.0,97,-99.99,,,-99.99,,2013-06-09 11:32:00,
2013-06-09 07:42:00,66.0,65.0,30.11,WSW,246,0.0,-999.0,97,-99.99,,,-99.99,,2013-06-09 11:42:00,
2013-06-09 07:52:00,66.0,65.0,30.11,WSW,246,0.0,-999.0,97,-99.99,,,-99.99,,2013-06-09 11:52:00,
2013-06-09 08:02:00,66.0,65.0,30.11,WSW,245,0.0,-999.0,97,-99.99,,,-99.99,,2013-06-09 12:02:00,
2013-06-09 08:12:00,66.0,65.0,30.11,WSW,245,0.0,-999.0,97,-99.99,,,-99.99,,2013-06-09 12:12:00,
2013-06-09 08:22:00,66.0,65.0,30.12,WSW,245,0.0,-999.0,97,-99.99,,,-99.99,,2013-06-09 12:22:00,
2013-06-09 08:32:00,67.0,66.0,30.13,WSW,245,0.0,-999.0,97,-99.99,,,-99.99,,2013-06-09 12:32:00,
2013-06-09 08:42:00,67.0,66.0,30.13,WSW,245,0.0,-999.0,97,-99.99,,,-99.99,,2013-06-09 12:42:00,
2013-06-09 08:52:00,68.0,67.0,30.14,WSW,245,0.0,-999.0,96,-99.99,,,-99.99,,2013-06-09 12:52:00,
2013-06-09 09:02:00,68.0,67.0,30.14,WSW,245,0.0,-999.0,95,-99.99,,,-99.99,,2013-06-09 13:02:00,
2013-06-09 09:12:00,68.0,67.0,30.14,WSW,245,0.0,-999.0,95,-99.99,,,-99.99,,2013-06-09 13:12:00,
2013-06-09 09:22:00,69.0,67.0,30.14,WSW,245,0.0,-999.0,94,-99.99,,,-99.99,,2013-06-09 13:22:00,
2013-06-09 09:32:00,70.0,68.0,30.13,WSW,245,0.0,-999.0,94,-99.99,,,-99.99,,2013-06-09 13:32:00,
2013-06-09 09:42:00,70.0,68.0,30.13,WSW,245,0.0,-999.0,94,-99.99,,,-99.99,,2013-06-09 13:42:00,
2013-06-09 09:52:00,71.0,68.0,30.13,WSW,245,0.0,-999.0,90,-99.99,,,-99.99,,2013-06-09 13:52:00,
2013-06-09 10:02:00,73.0,70.0,30.13,SW,227,0.0,-999.0,89,-99.99,,,-99.99,,2013-06-09 14:02:00,
2013-06-09 10:12:00,73.0,70.0,30.13,SW,227,0.0,-999.0,89,-99.99,,,-99.99,,2013-06-09 14:12:00,
2013-06-09 10:22:00,74.0,69.0,30.12,SSW,206,0.0,-999.0,85,-99.99,,,-99.99,,2013-06-09 14:22:00,
2013-06-09 10:32:00,74.0,68.0,30.12,South,188,0.0,-999.0,82,-99.99,,,-99.99,,2013-06-09 14:32:00,
2013-06-09 10:42:00,74.0,68.0,30.12,South,188,0.0,-999.0,82,-99.99,,,-99.99,,2013-06-09 14:42:00,
2013-06-09 10:52:00,75.0,69.0,30.11,ENE,65,0.0,-999.0,83,-99.99,,,-99.99,,2013-06-09 14:52:00,
2013-06-09 11:02:00,76.0,70.0,30.11,South,177,0.0,-999.0,81,-99.99,,,-99.99,,2013-06-09 15:02:00,
2013-06-09 11:12:00,76.0,70.0,30.11,South,177,0.0,-999.0,81,-99.99,,,-99.99,,2013-06-09 15:12:00,
2013-06-09 11:22:00,77.0,70.0,30.12,SSE,156,0.0,-999.0,79,-99.99,,,-99.99,,2013-06-09 15:22:00,
2013-06-09 11:33:00,78.0,71.0,30.11,South,173,0.0,-999.0,78,-99.99,,,-99.99,,2013-06-09 15:33:00,
2013-06-09 11:43:00,78.0,71.0,30.11,South,173,0.0,-999.0,78,-99.99,,,-99.99,,2013-06-09 15:43:00,
2013-06-09 11:53:00,78.0,69.0,30.12,South,177,0.0,-999.0,73,-99.99,,,-99.99,,2013-06-09 15:53:00,
2013-06-09 12:03:00,78.0,68.0,30.12,SSW,194,0.0,-999.0,72,-99.99,,,-99.99,,2013-06-09 16:03:00,
2013-06-09 12:13:00,78.0,68.0,30.12,SSW,194,0.0,-999.0,72,-99.99,,,-99.99,,2013-06-09 16:13:00,
2013-06-09 12:23:00,80.0,70.0,30.11,SSW,194,0.0,-999.0,72,-99.99,,,-99.99,,2013-06-09 16:23:00,
2013-06-09 12:33:00,80.0,68.0,30.11,SSW,198,0.0,-999.0,68,-99.99,,,-99.99,,2013-06-09 16:33:00,
2013-06-09 12:42:00,80.0,68.0,30.11,SSW,198,0.0,-999.0,68,-99.99,,,-99.99,,2013-06-09 16:42:00,
2013-06-09 12:53:00,80.0,68.0,30.11,South,187,0.0,-999.0,68,-99.99,,,-99.99,,2013-06-09 16:53:00,
2013-06-09 13:03:00,80.0,68.0,30.10,SSW,198,0.0,-999.0,67,-99.99,,,-99.99,,2013-06-09 17:03:00,
2013-06-09 13:12:00,80.0,68.0,30.10,SSW,198,0.0,-999.0,67,-99.99,,,-99.99,,2013-06-09 17:12:00,
2013-06-09 13:22:00,81.0,69.0,30.09,South,177,0.0,-999.0,66,-99.99,,,-99.99,,2013-06-09 17:22:00,
2013-06-09 13:32:00,82.0,69.0,30.09,SSW,198,0.0,-999.0,64,-99.99,,,-99.99,,2013-06-09 17:32:00,
2013-06-09 13:42:00,82.0,69.0,30.09,SSW,198,0.0,-999.0,64,-99.99,,,-99.99,,2013-06-09 17:42:00,
2013-06-09 13:52:00,81.0,68.0,30.09,SSW,192,0.0,-999.0,64,-99.99,,,-99.99,,2013-06-09 17:52:00,
2013-06-09 14:03:00,82.0,71.0,30.07,South,187,0.0,-999.0,69,-99.99,,,-99.99,,2013-06-09 18:03:00,
2013-06-09 14:12:00,82.0,71.0,30.07,South,187,0.0,-999.0,69,-99.99,,,-99.99,,2013-06-09 18:12:00,
2013-06-09 14:22:00,80.0,71.0,30.06,NE,42,0.0,-999.0,74,-99.99,,,-99.99,,2013-06-09 18:22:00,
2013-06-09 14:33:00,82.0,70.0,30.06,North,9,0.0,-999.0,67,-99.99,,,-99.99,,2013-06-09 18:33:00,
2013-06-09 14:42:00,82.0,70.0,30.06,North,9,0.0,-999.0,67,-99.99,,,-99.99,,2013-06-09 18:42:00,
2013-06-09 14:52:00,82.0,68.0,30.05,South,178,0.0,-999.0,62,-99.99,,,-99.99,,2013-06-09 18:52:00,
2013-06-09 15:02:00,81.0,70.0,30.05,South,184,0.0,-999.0,69,-99.99,,,-99.99,,2013-06-09 19:02:00,
2013-06-09 15:12:00,81.0,70.0,30.05,South,184,0.0,-999.0,69,-99.99,,,-99.99,,2013-06-09 19:12:00,
2013-06-09 15:22:00,82.0,72.0,30.04,West,271,0.0,-999.0,71,-99.99,,,-99.99,,2013-06-09 19:22:00,
2013-06-09 15:32:00,80.0,69.0,30.03,SSE,151,0.0,-999.0,70,-99.99,,,-99.99,,2013-06-09 19:32:00,
2013-06-09 15:42:00,80.0,69.0,30.03,SSE,151,0.0,-999.0,70,-99.99,,,-99.99,,2013-06-09 19:42:00,
2013-06-09 15:52:00,79.0,70.0,30.03,South,173,0.0,-999.0,73,-99.99,,,-99.99,,2013-06-09 19:52:00,
2013-06-09 16:03:00,80.0,68.0,30.03,SSW,195,0.0,-999.0,66,-99.99,,,-99.99,,2013-06-09 20:03:00,
2013-06-09 16:12:00,80.0,68.0,30.03,SSW,195,0.0,-999.0,66,-99.99,,,-99.99,,2013-06-09 20:12:00,
2013-06-09 16:22:00,80.0,68.0,30.03,SSE,167,1.0,-999.0,68,-99.99,,,-99.99,,2013-06-09 20:22:00,
2013-06-09 16:32:00,80.0,70.0,30.03,SSW,198,0.0,-999.0,72,-99.99,,,-99.99,,2013-06-09 20:32:00,
2013-06-09 16:42:00,80.0,70.0,30.03,SSW,198,0.0,-999.0,72,-99.99,,,-99.99,,2013-06-09 20:42:00,
2013-06-09 16:52:00,79.0,70.0,30.03,South,184,0.0,-999.0,73,-99.99,,,-99.99,,2013-06-09 20:52:00,
2013-06-09 17:03:00,78.0,71.0,30.03,South,184,0.0,-999.0,78,-99.99,,,-99.99,,2013-06-09 21:03:00,
2013-06-09 17:12:00,77.0,70.0,30.03,South,184,0.0,-999.0,80,-99.99,,,-99.99,,2013-06-09 21:12:00,
2013-06-09 17:22:00,77.0,70.0,30.03,South,184,0.0,-999.0,80,-99.99,,,-99.99,,2013-06-09 21:22:00,
2013-06-09 17:33:00,75.0,71.0,30.03,South,184,0.0,-999.0,87,-99.99,,,-99.99,,2013-06-09 21:33:00,
2013-06-09 17:43:00,75.0,71.0,30.03,South,184,0.0,-999.0,87,-99.99,,,-99.99,,2013-06-09 21:43:00,
2013-06-09 17:53:00,73.0,70.0,30.03,South,184,0.0,-999.0,90,-99.99,,,-99.99,,2013-06-09 21:53:00,
2013-06-09 18:02:00,72.0,70.0,30.04,South,186,0.0,-999.0,92,-99.99,,,-99.99,,2013-06-09 22:02:00,
2013-06-09 18:13:00,70.0,68.0,30.04,WNW,283,1.0,-999.0,93,-99.99,,,-99.99,,2013-06-09 22:13:00,
2013-06-09 18:23:00,70.0,68.0,30.04,WNW,283,1.0,-999.0,93,-99.99,,,-99.99,,2013-06-09 22:23:00,
2013-06-09 18:33:00,68.0,67.0,30.04,West,273,0.0,-999.0,95,-99.99,,,-99.99,,2013-06-09 22:33:00,
2013-06-09 18:42:00,68.0,67.0,30.04,West,273,0.0,-999.0,95,-99.99,,,-99.99,,2013-06-09 22:42:00,
2013-06-09 18:52:00,68.0,67.0,30.05,WNW,296,1.0,-999.0,95,-99.99,,,-99.99,,2013-06-09 22:52:00,
2013-06-09 19:02:00,67.0,66.0,30.07,South,187,0.0,-999.0,96,-99.99,,,-99.99,,2013-06-09 23:02:00,
2013-06-09 19:12:00,67.0,66.0,30.08,SSE,167,0.0,-999.0,96,-99.99,,,-99.99,,2013-06-09 23:12:00,
2013-06-09 19:22:00,67.0,66.0,30.08,SSE,167,0.0,-999.0,96,-99.99,,,-99.99,,2013-06-09 23:22:00,
2013-06-09 19:32:00,66.0,65.0,30.08,SSW,206,0.0,-999.0,96,-99.99,,,-99.99,,2013-06-09 23:32:00,
2013-06-09 19:43:00,66.0,65.0,30.08,SSW,206,0.0,-999.0,96,-99.99,,,-99.99,,2013-06-09 23:43:00,
2013-06-09 19:52:00,66.0,65.0,30.08,SSW,195,0.0,-999.0,96,-99.99,,,-99.99,,2013-06-09 23:52:00,
2013-06-09 20:02:00,66.0,65.0,30.07,SSW,196,0.0,-999.0,96,-99.99,,,-99.99,,2013-06-10 00:02:00,
2013-06-09 20:13:00,66.0,65.0,30.07,SSW,196,0.0,-999.0,96,-99.99,,,-99.99,,2013-06-10 00:13:00,
2013-06-09 20:22:00,66.0,65.0,30.07,SSW,196,0.0,-999.0,96,-99.99,,,-99.99,,2013-06-10 00:22:00,
2013-06-09 20:32:00,66.0,65.0,30.06,SSW,196,0.0,-999.0,97,-99.99,,,-99.99,,2013-06-10 00:32:00,
2013-06-09 20:42:00,66.0,65.0,30.06,SSW,196,0.0,-999.0,97,-99.99,,,-99.99,,2013-06-10 00:42:00,
2013-06-09 20:52:00,66.0,65.0,30.06,SSW,196,0.0,-999.0,97,-99.99,,,-99.99,,2013-06-10 00:52:00,
2013-06-09 21:03:00,66.0,65.0,30.06,SSW,196,0.0,-999.0,97,-99.99,,,-99.99,,2013-06-10 01:03:00,
2013-06-09 21:12:00,66.0,65.0,30.06,SSW,196,0.0,-999.0,97,-99.99,,,-99.99,,2013-06-10 01:12:00,
2013-06-09 21:22:00,66.0,65.0,30.06,WSW,240,0.0,-999.0,97,-99.99,,,-99.99,,2013-06-10 01:22:00,
2013-06-09 21:32:00,65.0,64.0,30.07,WSW,240,0.0,-999.0,97,-99.99,,,-99.99,,2013-06-10 01:32:00,
2013-06-09 21:43:00,65.0,64.0,30.07,WSW,240,0.0,-999.0,97,-99.99,,,-99.99,,2013-06-10 01:43:00,
2013-06-09 21:52:00,65.0,64.0,30.06,WSW,240,0.0,-999.0,97,-99.99,,,-99.99,,2013-06-10 01:52:00,
2013-06-09 22:02:00,65.0,64.0,30.06,WSW,240,0.0,-999.0,97,-99.99,,,-99.99,,2013-06-10 02:02:00,
2013-06-09 22:12:00,65.0,64.0,30.06,WSW,240,0.0,-999.0,97,-99.99,,,-99.99,,2013-06-10 02:12:00,
2013-06-09 22:22:00,65.0,64.0,30.06,WSW,240,0.0,-999.0,97,-99.99,,,-99.99,,2013-06-10 02:22:00,
2013-06-09 22:32:00,65.0,64.0,30.07,WSW,240,0.0,-999.0,97,-99.99,,,-99.99,,2013-06-10 02:32:00,
2013-06-09 22:42:00,65.0,64.0,30.07,WSW,240,0.0,-999.0,97,-99.99,,,-99.99,,2013-06-10 02:42:00,
2013-06-09 22:52:00,66.0,65.0,30.07,WSW,240,0.0,-999.0,97,-99.99,,,-99.99,,2013-06-10 02:52:00,
2013-06-09 23:02:00,66.0,65.0,30.08,WSW,240,0.0,-999.0,97,-99.99,,,-99.99,,2013-06-10 03:02:00,
2013-06-09 23:12:00,66.0,65.0,30.08,WSW,240,0.0,-999.0,97,-99.99,,,-99.99,,2013-06-10 03:12:00,
2013-06-09 23:22:00,66.0,65.0,30.07,WSW,240,0.0,-999.0,97,-99.99,,,-99.99,,2013-06-10 03:22:00,
2013-06-09 23:33:00,66.0,65.0,30.06,WSW,240,0.0,-999.0,97,-99.99,,,-99.99,,2013-06-10 03:33:00,
2013-06-09 23:43:00,66.0,65.0,30.06,WSW,240,0.0,-999.0,97,-99.99,,,-99.99,,2013-06-10 03:43:00,
2013-06-09 23:53:00,66.0,65.0,30.06,WSW,240,0.0,-999.0,97,-99.99,,,-99.99,,2013-06-10 03:53:00,